Location: Winnipauk Village
(41.1295°N, 73.4171°W)
Time: 14:43:13
(UTC+00:00)

X-37B - Pass Details

Date: 05 August 2021
Orbit: 381 x 393 km, 45.0° (Epoch: 29 August)

Event Time Altitude Azimuth Distance (km) Brightness Sun altitude
Exits shadow 07:29:35 38° 71° (ENE) 594 1.9 -22.4°
Drops below altitude 10° 07:31:40 10° 69° (ENE) 1,397 4.2 -22.2°
Sets 07:33:44 0° 69° (ENE) 2,252 5.5 -21.9°
